Location: Highland Meadows Observing Site
(48.4428°N, 114.5461°W)
Time: 15:08:57
(UTC-07:00)

Amateur Radio Satellites - All Passes

Search period start: 18 January 2017 14:38
Search period end: 19 January 2017 14:38
Location: Highland Meadows Observing Site, 48.4428°N, 114.5461°W

Satellite Date Start Highest point End Downlink Frequencies (MHz)
Time Altitude Azimuth
DX 1 18 Jan 14:43:32 14:46:50 21° 298° (WNW) 14:50:06 434.975-435.025
UKube-1 18 Jan 14:46:54 14:50:27 25° 296° (WNW) 14:53:57 .
YUBILEINY 18 Jan 14:47:47 14:56:25 64° 92° (E) 15:05:08 435.215
TISAT 1 18 Jan 14:48:55 14:53:02 60° 288° (WNW) 14:57:08 437.305
SPROUT 18 Jan 14:50:35 14:52:28 13° 303° (WNW) 14:54:20 437.525
AO-85 18 Jan 14:57:58 15:02:26 46° 122° (ESE) 15:06:36 145.980
AO-7 18 Jan 15:01:11 15:09:35 87° 67° (ENE) 15:18:01 29.400- 29.500
Gurwin Techsat 1B 18 Jan 15:04:07 15:07:51 19° 270° (W) 15:11:37 435.225
O/OREOS (USA 219) 18 Jan 15:19:24 15:22:26 17° 46° (NE) 15:25:29 437.305
AIST 1 18 Jan 15:20:58 15:25:13 49° 284° (WNW) 15:29:29
ITUPSAT 1 18 Jan 15:25:57 15:30:45 63° 102° (ESE) 15:35:31 437.325
Cosmos 2504 18 Jan 15:29:20 15:37:53 65° 93° (E) 15:45:55 435.465 / 435.565
ITAMSAT 1 18 Jan 15:44:23 15:49:01 33° 264° (W) 15:53:42 435.822/435.867
HORYU 2 18 Jan 15:49:00 15:51:41 16° 58° (ENE) 15:54:22 437.375
BRITE-PL 18 Jan 15:49:08 15:54:16 36° 66° (ENE) 15:59:20 437.365/2234.400
CUSAT 1 18 Jan 15:50:52 15:58:11 42° 271° (W) 16:05:17 437.405
NOAA 15 18 Jan 16:01:42 16:03:46 12° 51° (NE) 16:05:49 137.62
BEESAT 18 Jan 16:02:10 16:06:55 61° 289° (WNW) 16:11:37 436.000
SO-50 18 Jan 16:02:26 16:06:25 29° 36° (NE) 16:10:20 436.795
SWISSCUBE 18 Jan 16:03:37 16:08:19 54° 290° (WNW) 16:12:59 437.505
GOMX 1 18 Jan 16:05:28 16:09:33 23° 62° (ENE) 16:13:29 467.674
MOZHAYETS 4 18 Jan 16:16:38 16:21:17 68° 102° (ESE) 16:25:55
AUBIESAT-1 18 Jan 16:17:33 16:19:38 15° 97° (E) 16:21:41 437.475
DANDE 18 Jan 16:18:20 16:25:38 64° 264° (W) 16:33:50 436.750
STARS 18 Jan 16:35:42 16:38:37 17° 91° (E) 16:41:31 437.465
Cosmos 2491 18 Jan 16:36:37 16:40:30 14° 290° (WNW) 16:44:26 435.465 / 435.565
AO-85 18 Jan 16:38:57 16:43:00 31° 320° (NW) 16:46:47 145.980
CUTE-I 18 Jan 16:39:52 16:43:54 22° 59° (ENE) 16:47:56 437.470
YUBILEINY 18 Jan 16:45:57 16:53:49 35° 295° (WNW) 17:01:48 435.215
DOVE 4 18 Jan 16:55:26 16:59:24 25° 64° (ENE) 17:03:13 437.250
CUBESAT XI-V 18 Jan 16:56:51 17:01:02 31° 95° (E) 17:05:09 437.345
AO-7 18 Jan 16:56:56 17:03:21 24° 270° (W) 17:09:50 29.400- 29.500
O/OREOS (USA 219) 18 Jan 16:57:54 17:02:25 78° 246° (WSW) 17:06:54 437.305
HO-68 18 Jan 16:59:59 17:03:56 16° 44° (NE) 17:07:53 435.675
ITUPSAT 1 18 Jan 17:04:41 17:08:08 20° 301° (WNW) 17:11:35 437.325
NOAA 18 18 Jan 17:09:17 17:13:38 25° 58° (ENE) 17:17:58 137.9125
KKS-1 18 Jan 17:11:52 17:16:19 80° 103° (ESE) 17:20:45 437.445
M-CUBED/EXP-1 PRIME 18 Jan 17:12:24 17:15:53 89° 123° (ESE) 17:19:11 437.505
Cubesat XI-IV 18 Jan 17:21:05 17:26:06 45° 67° (ENE) 17:31:09 437.490
HORYU 2 18 Jan 17:23:19 17:27:43 71° 257° (WSW) 17:32:09 437.375
Cosmos 2504 18 Jan 17:24:09 17:31:47 34° 294° (WNW) 17:39:03 435.465 / 435.565
BRITE-PL 18 Jan 17:27:13 17:32:37 43° 264° (W) 17:37:59 437.365/2234.400
BEESAT 3 18 Jan 17:29:07 17:32:52 48° 122° (ESE) 17:36:42 437.485
NOAA 15 18 Jan 17:37:20 17:42:33 64° 70° (ENE) 17:47:49 137.62
LilacSat-2 18 Jan 17:39:04 17:42:47 59° 73° (ENE) 17:46:32 437.200
GOMX 1 18 Jan 17:41:50 17:47:14 64° 259° (W) 17:52:24 467.674
SO-50 18 Jan 17:42:44 17:47:10 55° 237° (WSW) 17:51:31 436.795
BEESAT 18 Jan 17:43:04 17:43:45 10° 308° (NW) 17:44:25 436.000
AUBIESAT-1 18 Jan 17:51:05 17:54:19 38° 296° (WNW) 17:57:26 437.475
CANX-2 18 Jan 17:52:22 17:54:33 14° 59° (ENE) 17:56:46 2200.000
MOZHAYETS 4 18 Jan 17:54:53 17:57:57 18° 301° (WNW) 18:01:02
DANDE 18 Jan 18:03:21 18:07:16 15° 281° (WNW) 18:11:23 436.750
SEEDS 18 Jan 18:08:23 18:10:03 12° 57° (ENE) 18:11:45 437.485
BEESAT 2 18 Jan 18:09:13 18:13:05 56° 123° (ESE) 18:17:01 435.950
STARS 18 Jan 18:11:02 18:15:19 56° 289° (WNW) 18:19:35 437.465
CUTE-I 18 Jan 18:18:15 18:23:30 65° 258° (WSW) 18:28:49 437.470
COMPASS 1 18 Jan 18:18:45 18:19:31 10° 56° (NE) 18:20:15 437.405
AO-85 18 Jan 18:23:43 18:24:41 11° 343° (NNW) 18:25:38 145.980
AAUSAT CUBESAT 2 18 Jan 18:31:42 18:32:52 11° 57° (ENE) 18:34:02 437.432
DOVE 4 18 Jan 18:31:59 18:36:52 49° 261° (W) 18:41:29 437.250
CUBESAT XI-V 18 Jan 18:34:09 18:38:27 35° 293° (WNW) 18:42:42 437.345
CINEMA 3 18 Jan 18:38:37 18:42:56 53° 72° (ENE) 18:47:06 145.822/145.860
HO-68 18 Jan 18:43:14 18:50:15 58° 65° (ENE) 18:57:17 435.675
UWE-3 18 Jan 18:46:11 18:47:42 12° 58° (ENE) 18:49:14 435.000/436.395/437.385
NOAA 18 18 Jan 18:48:26 18:53:54 62° 258° (WSW) 18:59:22 137.9125
KKS-1 18 Jan 18:49:52 18:52:18 15° 303° (WNW) 18:54:44 437.445
CUTE 1.7 + AOD 2 18 Jan 18:56:57 19:01:01 47° 71° (ENE) 19:05:09 437.475
Cubesat XI-IV 18 Jan 19:01:42 19:06:20 30° 265° (W) 19:10:59 437.490
BEESAT 3 18 Jan 19:07:22 19:10:42 26° 322° (NW) 19:14:04 437.485
ZACube-1 18 Jan 19:09:11 19:10:59 13° 58° (ENE) 19:12:47 437.345
LilacSat-2 18 Jan 19:15:44 19:17:28 13° 271° (W) 19:19:12 437.200
NOAA 15 18 Jan 19:18:51 19:22:46 21° 269° (W) 19:26:43 137.62
CANX-2 18 Jan 19:25:34 19:29:49 78° 258° (WSW) 19:34:07 2200.000
STRAND 1 18 Jan 19:30:14 19:34:55 34° 96° (E) 19:39:34 437.568
GONETS M04 18 Jan 19:35:57 19:43:28 34° 83° (E) 19:51:02
SEEDS 18 Jan 19:40:51 19:45:05 90° 286° (WNW) 19:49:22 437.485
CUBEBUG 2 18 Jan 19:46:50 19:50:58 67° 74° (ENE) 19:55:06 437.445
Oscar 11 18 Jan 19:47:13 19:50:46 26° 65° (ENE) 19:54:21 145.826/435.025
BEESAT 2 18 Jan 19:47:53 19:51:09 24° 323° (NW) 19:54:28 435.950
Cosmos 2499 18 Jan 19:48:39 19:56:34 48° 89° (E) 20:03:59 435.465 / 435.565
COMPASS 1 18 Jan 19:50:06 19:54:18 77° 74° (ENE) 19:58:32 437.405
AIST 2 18 Jan 19:50:47 19:53:26 17° 112° (ESE) 19:56:05 435.215
AAUSAT CUBESAT 2 18 Jan 20:03:27 20:07:37 83° 73° (ENE) 20:11:51 437.432
DELFI C3 18 Jan 20:05:03 20:07:09 14° 60° (ENE) 20:09:17 145.870
CINEMA 3 18 Jan 20:17:23 20:20:23 18° 269° (W) 20:23:19 145.822/145.860
UWE-3 18 Jan 20:19:23 20:23:32 88° 256° (WSW) 20:27:42 435.000/436.395/437.385
FUNcube-1 18 Jan 20:20:41 20:24:42 54° 72° (ENE) 20:28:47 145.935
HO-68 18 Jan 20:31:57 20:38:19 33° 265° (W) 20:44:45 435.675
CUTE 1.7 + AOD 2 18 Jan 20:34:01 20:37:07 20° 269° (W) 20:40:15 437.475
ZACube-1 18 Jan 20:42:32 20:46:40 82° 257° (WSW) 20:50:51 437.345
STRAND 1 18 Jan 21:09:25 21:14:06 37° 295° (WNW) 21:18:48 437.568
HUMSAT D 18 Jan 21:10:43 21:14:28 35° 68° (ENE) 21:18:16 437.325/437.525
SEEDS 18 Jan 21:21:11 21:21:26 10° 274° (W) 21:21:40 437.485
Oscar 11 18 Jan 21:22:44 21:26:45 38° 263° (W) 21:30:49 145.826/435.025
CUBEBUG 2 18 Jan 21:26:04 21:28:04 13° 272° (W) 21:30:04 437.445
PRISM 18 Jan 21:27:07 21:30:41 27° 95° (E) 21:34:11 437.425
AIST 2 18 Jan 21:27:18 21:31:26 67° 312° (NW) 21:35:37 435.215
COMPASS 1 18 Jan 21:28:48 21:30:23 12° 273° (W) 21:31:59 437.405
GONETS M04 18 Jan 21:31:11 21:39:47 63° 285° (WNW) 21:48:30
TIGRISAT 18 Jan 21:32:01 21:32:52 10° 87° (E) 21:33:44 435.000
ESTCUBE 1 18 Jan 21:34:29 21:36:33 13° 56° (NE) 21:38:37 437.505/2401.250
DELFI C3 18 Jan 21:37:27 21:41:27 69° 258° (WSW) 21:45:30 145.870
BY70-1 18 Jan 21:41:20 21:43:20 16° 63° (ENE) 21:45:25 436.1900
Cosmos 2499 18 Jan 21:41:54 21:49:48 44° 289° (WNW) 21:57:11 435.465 / 435.565
AAUSAT CUBESAT 2 18 Jan 21:42:33 21:43:41 11° 274° (W) 21:44:48 437.432
ANTELSAT 18 Jan 21:45:11 21:47:51 16° 90° (E) 21:50:34 437.575/2403.000
AO-85 18 Jan 21:46:03 21:49:06 20° 33° (NNE) 21:52:04 145.980
FUNcube-1 18 Jan 21:58:45 22:01:19 16° 270° (W) 22:03:54 145.935
SPROUT 18 Jan 22:36:18 22:38:26 14° 58° (ENE) 22:40:36 437.525
CUBEBUG 1 18 Jan 22:42:54 22:46:47 31° 66° (ENE) 22:50:40 437.445
HUMSAT D 18 Jan 22:46:48 22:50:10 24° 267° (W) 22:53:35 437.325/437.525
50 SAT 18 Jan 22:49:02 22:51:06 15° 62° (ENE) 22:53:11 437.505
UNISAT 6 18 Jan 22:51:51 22:56:15 69° 102° (ESE) 23:00:43 437.425
AISAT 18 Jan 22:54:33 22:58:22 29° 65° (ENE) 23:02:11 437.250
ISS 18 Jan 23:00:41 23:02:37 15° 137° (SE) 23:04:33 145.825
PRISM 18 Jan 23:02:18 23:05:59 32° 294° (WNW) 23:09:38 437.425
TIGRISAT 18 Jan 23:05:47 23:10:12 88° 105° (ESE) 23:14:41 435.000
AIST 2 18 Jan 23:08:01 23:10:41 16° 332° (NNW) 23:13:23 435.215
ESTCUBE 1 18 Jan 23:08:06 23:12:38 86° 77° (ENE) 23:17:14 437.505/2401.250
QB50P1 18 Jan 23:08:08 23:09:30 11° 88° (E) 23:10:51 145.935-145.965
BY70-1 18 Jan 23:10:38 23:13:26 33° 263° (W) 23:16:26 436.1900
POLYITAN 1 18 Jan 23:11:17 23:13:07 12° 88° (E) 23:14:56 437.675
QB50P2 18 Jan 23:12:10 23:14:21 14° 89° (E) 23:16:31 145.880/145.840
JAS-2 18 Jan 23:15:25 23:22:09 48° 98° (E) 23:29:29 435.910
ANTELSAT 18 Jan 23:20:37 23:24:59 64° 287° (WNW) 23:29:25 437.575/2403.000
RS-15 18 Jan 23:24:08 23:34:21 36° 105° (ESE) 23:44:53 29.354- 29.394
AO-85 18 Jan 23:25:59 23:29:55 69° 235° (SW) 23:33:47 145.980
VELOX 1 18 Jan 23:27:23 23:31:44 54° 71° (ENE) 23:36:06 145.980
POPSAT HIP 1 18 Jan 23:33:23 23:36:33 20° 92° (E) 23:39:43 437.405
GONETS M04 18 Jan 23:33:40 23:38:48 16° 311° (NW) 23:43:59
Cosmos 2499 18 Jan 23:45:00 23:45:21 10° 314° (NW) 23:45:41 435.465 / 435.565
DUCHIFAT 1 18 Jan 23:46:18 23:49:43 24° 94° (E) 23:53:08 145.980
NANOSAT C BR1 18 Jan 23:50:44 23:54:23 28° 95° (E) 23:58:02 145.865
DX 1 19 Jan 00:05:25 00:09:45 67° 72° (ENE) 00:14:06 434.975-435.025
BEESAT 3 19 Jan 00:05:28 00:08:25 19° 33° (NNE) 00:11:21 437.485
UKube-1 19 Jan 00:08:12 00:12:25 54° 70° (ENE) 00:16:39 .
SPROUT 19 Jan 00:09:32 00:13:47 79° 256° (WSW) 00:18:05 437.525
TISAT 1 19 Jan 00:09:34 00:12:33 19° 62° (ENE) 00:15:32 437.305
CUBEBUG 1 19 Jan 00:19:05 00:23:01 31° 264° (W) 00:26:59 437.445
50 SAT 19 Jan 00:20:27 00:23:56 50° 259° (W) 00:27:28 437.505
BUGSAT 1 19 Jan 00:28:12 00:31:29 24° 94° (E) 00:34:46 437.445
UNISAT 6 19 Jan 00:29:47 00:32:29 16° 300° (WNW) 00:35:14 437.425
AISAT 19 Jan 00:30:39 00:34:44 35° 263° (W) 00:38:50 437.250
ISS 19 Jan 00:35:24 00:38:38 73° 156° (SSE) 00:41:54 145.825
QB50P1 19 Jan 00:41:36 00:45:50 81° 284° (WNW) 00:50:03 145.935-145.965
TIGRISAT 19 Jan 00:44:14 00:46:17 13° 302° (WNW) 00:48:20 435.000
POLYITAN 1 19 Jan 00:45:12 00:49:25 74° 286° (WNW) 00:53:39 437.675
BEESAT 2 19 Jan 00:46:16 00:49:25 21° 34° (NE) 00:52:33 435.950
QB50P2 19 Jan 00:46:24 00:50:36 68° 287° (WNW) 00:54:48 145.880/145.840
ESTCUBE 1 19 Jan 00:48:20 00:50:05 12° 273° (W) 00:51:50 437.505/2401.250
PCSat 19 Jan 00:50:59 00:55:11 23° 108° (ESE) 00:59:24 145.827
YUBILEINY 19 Jan 00:53:18 01:01:29 39° 67° (ENE) 01:09:34 435.215
ITUPSAT 1 19 Jan 01:00:38 01:03:43 17° 57° (ENE) 01:06:48 437.325
JAS-2 19 Jan 01:00:41 01:07:07 44° 295° (WNW) 01:14:10 435.910
VELOX 1 19 Jan 01:05:25 01:08:31 18° 269° (W) 01:11:38 145.980
POPSAT HIP 1 19 Jan 01:08:31 01:12:33 44° 290° (WNW) 01:16:34 437.405
Cosmos 2504 19 Jan 01:18:16 01:24:34 28° 62° (ENE) 01:30:36 435.465 / 435.565
DUCHIFAT 1 19 Jan 01:21:38 01:25:30 37° 292° (WNW) 01:29:23 145.980
AIST 1 19 Jan 01:23:51 01:28:07 58° 78° (ENE) 01:32:18
NANOSAT C BR1 19 Jan 01:26:23 01:30:06 31° 293° (WNW) 01:33:50 145.865
RS-15 19 Jan 01:33:40 01:45:43 82° 310° (NW) 01:58:13 29.354- 29.394
Oscar 19 19 Jan 01:34:20 01:39:01 34° 96° (E) 01:43:40 437.125/150
BEESAT 19 Jan 01:34:59 01:39:12 33° 65° (ENE) 01:43:27 436.000
Gurwin Techsat 1B 19 Jan 01:35:17 01:39:10 20° 90° (E) 01:43:01 435.225
SWISSCUBE 19 Jan 01:36:17 01:40:38 37° 66° (ENE) 01:45:00 437.505
BEESAT 3 19 Jan 01:42:31 01:46:32 82° 234° (SW) 01:50:32 437.485
TISAT 1 19 Jan 01:43:48 01:47:52 50° 260° (W) 01:51:56 437.305
DX 1 19 Jan 01:43:57 01:46:24 15° 270° (W) 01:48:52 434.975-435.025
UKube-1 19 Jan 01:45:49 01:48:47 18° 269° (W) 01:51:45 .
Cosmos 2491 19 Jan 01:47:05 01:54:34 34° 83° (E) 02:02:05 435.465 / 435.565
MOZHAYETS 4 19 Jan 01:47:27 01:49:56 15° 57° (ENE) 01:52:25
BUGSAT 1 19 Jan 02:03:17 02:06:56 34° 292° (WNW) 02:10:37 437.445
ISS 19 Jan 02:12:06 02:15:16 47° 354° (N) 02:18:27 145.825
QB50P1 19 Jan 02:19:47 02:20:53 11° 304° (NW) 02:22:00 145.935-145.965
BEESAT 2 19 Jan 02:23:34 02:27:38 71° 234° (SW) 02:31:39 435.950
POLYITAN 1 19 Jan 02:24:06 02:24:27 10° 305° (NW) 02:24:48 437.675
M-CUBED/EXP-1 PRIME 19 Jan 02:27:33 02:31:07 26° 60° (ENE) 02:34:29 437.505
AIST 2 19 Jan 02:29:29 02:31:21 12° 21° (NNE) 02:33:12 435.215
PCSat 19 Jan 02:32:44 02:38:07 65° 308° (NW) 02:43:33 145.827
ITUPSAT 1 19 Jan 02:36:14 02:40:59 75° 255° (WSW) 02:45:48 437.325
KKS-1 19 Jan 02:38:55 02:41:38 16° 58° (ENE) 02:44:21 437.445
JAS-2 19 Jan 02:48:53 02:50:38 11° 315° (NW) 02:52:26 435.910
YUBILEINY 19 Jan 02:50:07 02:58:40 57° 270° (W) 03:07:09 435.215
AO-7 19 Jan 02:59:35 03:05:50 22° 89° (E) 03:12:00 29.400- 29.500
AIST 1 19 Jan 03:02:47 03:05:12 15° 276° (W) 03:07:36
AUBIESAT-1 19 Jan 03:05:04 03:09:08 46° 65° (ENE) 03:12:57 437.475
Cosmos 2504 19 Jan 03:11:14 03:18:41 68° 266° (W) 03:25:47 435.465 / 435.565
BEESAT 19 Jan 03:12:37 03:16:57 34° 263° (W) 03:21:19 436.000
Oscar 19 19 Jan 03:13:37 03:18:24 38° 294° (WNW) 03:23:08 437.125/150
SWISSCUBE 19 Jan 03:14:17 03:18:28 30° 265° (W) 03:22:42 437.505
Gurwin Techsat 1B 19 Jan 03:14:18 03:19:36 66° 289° (WNW) 03:24:51 435.225
CUSAT 1 19 Jan 03:14:38 03:19:18 33° 86° (E) 03:25:06 437.405
MOZHAYETS 4 19 Jan 03:21:53 03:26:27 84° 258° (WSW) 03:31:06
BEESAT 3 19 Jan 03:23:15 03:23:27 10° 251° (WSW) 03:23:38 437.485
STARS 19 Jan 03:35:33 03:39:09 25° 64° (ENE) 03:42:46 437.465
Cosmos 2491 19 Jan 03:42:17 03:50:54 63° 285° (WNW) 03:59:35 435.465 / 435.565
ISS 19 Jan 03:48:49 03:52:03 60° 14° (NNE) 03:55:17 145.825
RS-15 19 Jan 03:48:52 04:00:17 42° 340° (NNW) 04:11:52 29.354- 29.394
DANDE 19 Jan 03:51:18 03:53:48 16° 79° (ENE) 03:56:41 436.750
ITAMSAT 1 19 Jan 03:52:30 03:57:41 65° 102° (ESE) 04:02:52 435.822/435.867
M-CUBED/EXP-1 PRIME 19 Jan 04:01:19 04:05:27 39° 255° (WSW) 04:09:20 437.505
CUBESAT XI-V 19 Jan 04:03:22 04:07:51 45° 69° (ENE) 04:12:22 437.345
AIST 2 19 Jan 04:06:55 04:10:57 39° 43° (NE) 04:14:57 435.215
KKS-1 19 Jan 04:13:14 04:17:41 72° 257° (WSW) 04:22:09 437.445
PCSat 19 Jan 04:18:45 04:22:34 19° 331° (NNW) 04:26:24 145.827
AUBIESAT-1 19 Jan 04:40:30 04:43:41 20° 260° (W) 04:46:45 437.475
YUBILEINY 19 Jan 04:50:29 04:53:22 12° 292° (WNW) 04:56:15 435.215
AO-7 19 Jan 04:51:15 04:59:42 90° 115° (ESE) 05:08:03 29.400- 29.500
CUSAT 1 19 Jan 04:55:53 05:00:58 45° 292° (WNW) 05:07:29 437.405
Gurwin Techsat 1B 19 Jan 04:56:24 04:58:34 13° 309° (NW) 05:00:43 435.225
MOZHAYETS 4 19 Jan 05:03:28 05:04:22 10° 275° (W) 05:05:15
Cosmos 2504 19 Jan 05:07:29 05:10:25 13° 289° (WNW) 05:13:19 435.465 / 435.565
STARS 19 Jan 05:11:13 05:15:20 39° 262° (W) 05:19:28 437.465
HORYU 2 19 Jan 05:11:19 05:14:11 17° 90° (E) 05:17:03 437.375
STRAND 1 19 Jan 05:14:14 05:16:25 13° 53° (NE) 05:18:36 437.568
PHONESAT 2.4 19 Jan 05:20:03 05:21:08 12° 181° (S) 05:22:13 2401.200-2431.200
ISS 19 Jan 05:25:26 05:28:28 36° 213° (SSW) 05:31:29 145.825
BRITE-PL 19 Jan 05:28:35 05:33:34 54° 99° (E) 05:38:06 437.365/2234.400
DANDE 19 Jan 05:31:41 05:35:33 57° 287° (WNW) 05:40:50 436.750
ITAMSAT 1 19 Jan 05:32:48 05:36:43 22° 301° (WNW) 05:40:38 435.822/435.867
Cosmos 2499 19 Jan 05:35:59 05:41:01 19° 57° (ENE) 05:45:56 435.465 / 435.565
Cubesat XI-IV 19 Jan 05:36:09 05:38:25 13° 86° (E) 05:40:42 437.490
GONETS M04 19 Jan 05:40:26 05:47:01 22° 56° (NE) 05:53:33
GOMX 1 19 Jan 05:40:46 05:44:40 28° 93° (E) 05:48:22 467.674
CUBESAT XI-V 19 Jan 05:41:37 05:45:26 24° 268° (W) 05:49:16 437.345
Cosmos 2491 19 Jan 05:44:45 05:49:54 17° 310° (NW) 05:55:05 435.465 / 435.565
AIST 2 19 Jan 05:45:36 05:49:21 31° 242° (WSW) 05:53:05 435.215
NOAA 15 19 Jan 05:49:39 05:53:11 18° 89° (E) 05:56:42 137.62
RS-15 19 Jan 06:05:20 06:16:45 39° 14° (NNE) 06:28:02 29.354- 29.394
PCSat 19 Jan 06:07:12 06:08:17 11° 357° (N) 06:09:23 145.827
DOVE 4 19 Jan 06:27:19 06:31:08 31° 95° (E) 06:34:50 437.250
CUTE-I 19 Jan 06:31:25 06:36:23 38° 97° (E) 06:41:20 437.470
LilacSat-2 19 Jan 06:42:38 06:46:27 53° 100° (E) 06:50:14 437.200
CUSAT 1 19 Jan 06:44:01 06:45:12 10° 318° (NW) 06:46:25 437.405
AO-7 19 Jan 06:44:51 06:51:32 28° 312° (NW) 06:58:12 29.400- 29.500
HORYU 2 19 Jan 06:46:44 06:51:09 61° 288° (WNW) 06:55:32 437.375
STRAND 1 19 Jan 06:49:38 06:54:42 71° 72° (ENE) 06:59:49 437.568
NOAA 18 19 Jan 07:06:37 07:11:47 41° 98° (E) 07:16:55 137.9125
BRITE-PL 19 Jan 07:07:42 07:11:38 23° 300° (WNW) 07:15:20 437.365/2234.400
CANX-2 19 Jan 07:08:02 07:10:30 15° 89° (E) 07:12:56 2200.000
O/OREOS (USA 219) 19 Jan 07:13:43 07:18:07 59° 111° (ESE) 07:22:31 437.305
Cubesat XI-IV 19 Jan 07:13:58 07:19:20 82° 105° (ESE) 07:24:41 437.490
GOMX 1 19 Jan 07:18:43 07:22:51 34° 293° (WNW) 07:26:45 467.674
SEEDS 19 Jan 07:22:45 07:24:28 12° 87° (E) 07:26:12 437.485
Cosmos 2499 19 Jan 07:28:06 07:35:23 88° 81° (E) 07:42:26 435.465 / 435.565
NOAA 15 19 Jan 07:28:13 07:33:32 74° 288° (WNW) 07:38:50 137.62
CUBEBUG 2 19 Jan 07:35:53 07:36:52 11° 87° (E) 07:37:53 437.445
GONETS M04 19 Jan 07:36:29 07:45:23 82° 79° (E) 07:54:15
AAUSAT CUBESAT 2 19 Jan 07:44:42 07:45:17 10° 86° (E) 07:45:51 437.432
PCSat 19 Jan 07:50:57 07:54:10 16° 24° (NNE) 07:57:23 145.827
HO-68 19 Jan 07:54:18 08:01:05 42° 98° (E) 08:07:49 435.675
SO-50 19 Jan 08:01:11 08:04:34 20° 113° (ESE) 08:07:55 436.795
DOVE 4 19 Jan 08:05:10 08:08:47 28° 295° (WNW) 08:12:19 437.250
CINEMA 3 19 Jan 08:06:01 08:10:12 80° 103° (ESE) 08:14:27 145.822/145.860
UWE-3 19 Jan 08:06:02 08:08:29 15° 89° (E) 08:10:59 435.000/436.395/437.385
CUTE-I 19 Jan 08:11:35 08:16:25 36° 296° (WNW) 08:21:14 437.470
CUTE 1.7 + AOD 2 19 Jan 08:13:31 08:17:47 56° 100° (E) 08:22:01 437.475
LilacSat-2 19 Jan 08:17:57 08:20:21 16° 298° (WNW) 08:22:45 437.200
RS-15 19 Jan 08:19:21 08:31:49 71° 45° (NE) 08:43:51 29.354- 29.394
PRISM 19 Jan 08:19:40 08:23:25 33° 67° (ENE) 08:27:11 437.425
UNISAT 6 19 Jan 08:20:37 08:22:25 12° 57° (ENE) 08:24:13 437.425
ZACube-1 19 Jan 08:27:51 08:30:26 15° 90° (E) 08:33:03 437.345
STRAND 1 19 Jan 08:31:05 08:34:25 17° 271° (W) 08:37:47 437.568
TIGRISAT 19 Jan 08:33:36 08:36:04 15° 59° (ENE) 08:38:33 435.000
CANX-2 19 Jan 08:42:30 08:46:46 65° 288° (WNW) 08:51:02 2200.000
NOAA 18 19 Jan 08:47:29 08:52:22 34° 297° (WNW) 08:57:14 137.9125
ANTELSAT 19 Jan 08:47:35 08:50:48 21° 63° (ENE) 08:54:03 437.575/2403.000
O/OREOS (USA 219) 19 Jan 08:54:29 08:57:54 21° 312° (NW) 09:01:20 437.305
Cubesat XI-IV 19 Jan 08:55:13 08:58:47 18° 304° (NW) 09:02:20 437.490
SEEDS 19 Jan 08:56:26 09:00:44 77° 284° (WNW) 09:04:58 437.485
COMPASS 1 19 Jan 09:04:27 09:08:42 88° 101° (E) 09:12:54 437.405
Oscar 11 19 Jan 09:05:57 09:09:48 30° 95° (E) 09:13:38 145.826/435.025
NOAA 15 19 Jan 09:09:45 09:12:26 14° 308° (NW) 09:15:08 137.62
CUBEBUG 2 19 Jan 09:09:47 09:14:06 88° 284° (WNW) 09:18:31 437.445
DELFI C3 19 Jan 09:12:46 09:14:21 12° 88° (E) 09:15:55 145.870
AAUSAT CUBESAT 2 19 Jan 09:17:09 09:21:22 87° 290° (WNW) 09:25:33 437.432
Cosmos 2499 19 Jan 09:22:51 09:27:25 18° 283° (WNW) 09:31:55 435.465 / 435.565
JAS-2 19 Jan 09:33:21 09:37:52 27° 58° (ENE) 09:42:45 435.910
PCSat 19 Jan 09:33:42 09:38:58 46° 47° (NE) 09:44:11 145.827
GONETS M04 19 Jan 09:34:28 09:41:11 25° 282° (WNW) 09:47:56
SO-50 19 Jan 09:39:54 09:44:36 68° 311° (NW) 09:49:15 436.795
FUNcube-1 19 Jan 09:40:25 09:44:46 72° 102° (ESE) 09:49:12 145.935
UWE-3 19 Jan 09:41:05 09:45:22 66° 287° (WNW) 09:49:45 435.000/436.395/437.385
HO-68 19 Jan 09:42:06 09:48:54 47° 298° (WNW) 09:55:39 435.675
CINEMA 3 19 Jan 09:44:54 09:46:48 13° 301° (WNW) 09:48:42 145.822/145.860
CUTE 1.7 + AOD 2 19 Jan 09:50:16 09:53:14 18° 298° (WNW) 09:56:10 437.475
UNISAT 6 19 Jan 09:54:13 09:58:29 87° 258° (WSW) 10:02:47 437.425
PRISM 19 Jan 09:55:12 09:58:44 27° 265° (W) 10:02:19 437.425
ZACube-1 19 Jan 10:02:49 10:07:07 64° 287° (WNW) 10:11:30 437.345
QB50P1 19 Jan 10:03:44 10:06:10 15° 60° (ENE) 10:08:37 145.935-145.965
POLYITAN 1 19 Jan 10:07:14 10:09:52 16° 60° (ENE) 10:12:31 437.675
TIGRISAT 19 Jan 10:08:03 10:12:16 68° 257° (WSW) 10:16:32 435.000
QB50P2 19 Jan 10:08:12 10:11:02 18° 61° (ENE) 10:13:52 145.880/145.840
ANTELSAT 19 Jan 10:23:11 10:27:16 45° 261° (W) 10:31:22 437.575/2403.000
HUMSAT D 19 Jan 10:25:13 10:29:16 40° 98° (E) 10:33:19 437.325/437.525
POPSAT HIP 1 19 Jan 10:29:19 10:32:45 25° 65° (ENE) 10:36:12 437.405
RS-15 19 Jan 10:32:29 10:43:44 45° 251° (WSW) 10:54:38 29.354- 29.394
SEEDS 19 Jan 10:34:45 10:35:39 11° 304° (NW) 10:36:32 437.485
DUCHIFAT 1 19 Jan 10:41:32 10:45:08 29° 66° (ENE) 10:48:44 145.980
COMPASS 1 19 Jan 10:41:52 10:43:36 12° 302° (WNW) 10:45:19 437.405
Oscar 11 19 Jan 10:42:02 10:45:56 32° 293° (WNW) 10:49:49 145.826/435.025
DELFI C3 19 Jan 10:45:38 10:49:38 70° 286° (WNW) 10:53:35 145.870
NANOSAT C BR1 19 Jan 10:46:11 10:49:58 34° 67° (ENE) 10:53:45 145.865
CUBEBUG 2 19 Jan 10:48:25 10:50:06 12° 302° (WNW) 10:51:48 437.445
AAUSAT CUBESAT 2 19 Jan 10:54:43 10:56:09 12° 303° (WNW) 10:57:36 437.432
ESTCUBE 1 19 Jan 10:58:13 11:00:40 14° 88° (E) 11:03:06 437.505/2401.250
PCSat 19 Jan 11:17:22 11:22:15 35° 247° (WSW) 11:27:07 145.827
JAS-2 19 Jan 11:17:22 11:22:36 54° 261° (W) 11:28:23 435.910
FUNcube-1 19 Jan 11:17:58 11:20:31 15° 300° (WNW) 11:23:06 145.935
Oscar 19 19 Jan 11:19:01 11:21:21 13° 52° (NE) 11:23:41 437.125/150
BUGSAT 1 19 Jan 11:21:20 11:24:48 28° 66° (ENE) 11:28:15 437.445
SO-50 19 Jan 11:22:36 11:25:53 19° 333° (NNW) 11:29:09 436.795
HO-68 19 Jan 11:32:03 11:34:56 13° 320° (NW) 11:37:48 435.675
QB50P1 19 Jan 11:37:16 11:41:27 68° 258° (WSW) 11:45:39 145.935-145.965
POLYITAN 1 19 Jan 11:41:05 11:45:14 61° 259° (W) 11:49:24 437.675
BY70-1 19 Jan 11:41:47 11:45:12 73° 102° (ESE) 11:48:26 436.1900
QB50P2 19 Jan 11:42:19 11:46:27 56° 260° (W) 11:50:36 145.880/145.840
Cosmos 2491 19 Jan 11:51:40 11:58:08 22° 55° (NE) 12:04:35 435.465 / 435.565
SPROUT 19 Jan 11:52:57 11:55:08 14° 89° (E) 11:57:18 437.525
HUMSAT D 19 Jan 12:01:14 12:04:41 24° 295° (WNW) 12:08:08 437.325/437.525
CUSAT 1 19 Jan 12:02:29 12:05:11 12° 44° (NE) 12:07:54 437.405
CUBEBUG 1 19 Jan 12:03:22 12:07:22 35° 97° (E) 12:11:20 437.445
POPSAT HIP 1 19 Jan 12:04:30 12:08:23 36° 263° (W) 12:12:17 437.405
AO-7 19 Jan 12:15:04 12:19:16 15° 34° (NNE) 12:23:28 29.400- 29.500
AISAT 19 Jan 12:16:38 12:20:35 32° 96° (E) 12:24:31 437.250
DUCHIFAT 1 19 Jan 12:17:02 12:20:45 31° 264° (W) 12:24:29 145.980
NANOSAT C BR1 19 Jan 12:22:14 12:25:44 26° 266° (W) 12:29:16 145.865
ESTCUBE 1 19 Jan 12:33:27 12:38:00 73° 286° (WNW) 12:42:31 437.505/2401.250
VELOX 1 19 Jan 12:49:50 12:54:15 65° 103° (ESE) 12:58:36 145.980
Oscar 19 19 Jan 12:54:36 12:59:46 71° 72° (ENE) 13:04:59 437.125/150
BUGSAT 1 19 Jan 12:56:31 13:00:07 30° 264° (W) 13:03:43 437.445
Gurwin Techsat 1B 19 Jan 12:59:40 13:04:41 45° 67° (ENE) 13:09:45 435.225
SO-50 19 Jan 13:07:11 13:08:11 11° 358° (N) 13:09:11 436.795
BY70-1 19 Jan 13:14:28 13:14:58 10° 301° (WNW) 13:15:28 436.1900
50 SAT 19 Jan 13:15:18 13:18:54 77° 285° (WNW) 13:22:26 437.505
TISAT 1 19 Jan 13:24:23 13:27:21 19° 92° (E) 13:30:18 437.305
DX 1 19 Jan 13:25:48 13:30:10 75° 103° (ESE) 13:34:29 434.975-435.025
UKube-1 19 Jan 13:27:14 13:31:30 57° 102° (ESE) 13:35:44 .
SPROUT 19 Jan 13:27:17 13:31:31 68° 287° (WNW) 13:35:45 437.525
ITAMSAT 1 19 Jan 13:36:22 13:40:24 24° 60° (ENE) 13:44:28 435.822/435.867
CUBEBUG 1 19 Jan 13:39:52 13:43:33 27° 295° (WNW) 13:47:11 437.445
CUSAT 1 19 Jan 13:41:57 13:49:24 42° 67° (ENE) 13:56:39 437.405
AO-85 19 Jan 13:45:07 13:47:47 15° 112° (ESE) 13:50:20 145.980
Cosmos 2491 19 Jan 13:47:42 13:56:32 82° 80° (E) 14:05:22 435.465 / 435.565
AISAT 19 Jan 13:53:10 13:57:01 30° 294° (WNW) 14:00:51 437.250
AIST 1 19 Jan 13:57:11 14:00:56 28° 89° (E) 14:04:40
YUBILEINY 19 Jan 13:59:25 14:07:17 38° 84° (E) 14:15:11 435.215
AO-7 19 Jan 14:02:12 14:10:00 46° 57° (ENE) 14:17:50 29.400- 29.500
Cosmos 2504 19 Jan 14:02:17 14:08:21 22° 78° (ENE) 14:14:11 435.465 / 435.565
ESTCUBE 1 19 Jan 14:12:39 14:14:00 11° 305° (NW) 14:15:20 437.505/2401.250
DANDE 19 Jan 14:20:23 14:26:58 33° 65° (ENE) 14:34:14 436.750
VELOX 1 19 Jan 14:27:22 14:30:14 17° 301° (WNW) 14:33:04 145.980
